Lid_Strength_Index
3 4 4 6 9 7 10 8 7 7 6 4 4 5 5 5 7 10 1 1 0 0 -0 -1 -1 -1 -1 -1 -1 -1 -1 -1 -1 -1 -1 -1 -1 -1 -1 -1 -1 -1 -1 -1 -1 -2 -1 -1 -1
5 5 5 7 10 11 10 7 7 6 5 4 4 4 5 7 4 3 2 0 0 0 -0 -0 -0 -1 -1 -1 -1 -1 -1 -1 -1 -1 -1 -1 -1 -1 -1 -1 -1 -1 -1 -2 -2 -2 -1 -1 -1
4 4 7 8 9 11 10 7 7 5 5 5 5 3 4 5 3 3 1 0 0 0 -0 -0 -0 -1 -1 -1 -1 -1 -1 -1 -1 -1 -1 -1 -1 -1 -1 -1 -1 -2 -2 -2 -2 -2 -2 -2 -1
5 5 7 10 10 8 7 6 5 6 5 5 4 5 3 2 2 1 1 0 0 0 -0 -1 -0 -0 -1 -1 -1 -1 -1 -1 -1 -1 -1 -1 -1 -1 -1 -1 -1 -2 -2 -2 -2 -2 -2 -2 -2
6 7 10 10 9 8 6 5 5 7 5 5 5 6 5 2 1 1 1 0 1 0 -0 -0 -0 -0 -1 -1 -1 -1 -1 -1 -1 -1 -1 -1 -1 -1 -1 -1 -1 -2 -2 -2 -2 -2 -2 -2 -2
9 8 11 11 9 7 5 5 5 6 5 5 5 5 5 1 1 1 0 0 0 0 -0 -0 -1 -0 -0 -1 -1 -1 -1 -1 -1 -1 -1 -1 -1 -1 -1 -1 -1 -2 -2 -2 -2 -2 -2 -2 -3
10 10 11 11 11 9 7 4 6 6 6 5 4 6 4 2 1 1 0 0 0 0 0 -0 -0 -1 -1 -1 -0 -1 -1 -1 -1 -1 -1 -1 -1 -1 -1 -1 -2 -2 -2 -2 -2 -2 -2 -2 -2
8 10 11 10 10 10 7 6 6 6 6 4 4 7 6 4 1 1 1 1 0 0 0 0 -0 -0 -0 -1 -1 -1 -1 -1 -1 -1 -1 -1 -1 -1 -1 -1 -1 -2 -2 -2 -2 -2 -2 -2 -2
6 11 12 11 10 9 7 8 6 5 6 4 5 4 3 3 2 1 1 1 1 1 0 0 0 -0 -0 -0 -1 -1 -1 -1 -1 -1 -1 -1 -1 -1 -1 -1 -2 -2 -2 -2 -2 -2 -2 -2 -2
6 9 9 7 6 7 6 6 6 7 7 7 7 5 3 2 3 2 2 3 2 1 1 0 0 0 -0 -0 -0 -1 -1 -1 -1 -1 -1 -1 -1 -1 -1 -2 -2 -1 -2 -2 -2 -2 -2 -2 -1
6 8 6 5 4 5 6 6 5 6 7 6 5 4 3 2 2 3 2 2 2 1 1 1 0 -0 -0 -0 -0 -0 -0 -0 -0 -1 -1 -1 -1 -1 -1 -0 -1 -1 -1 -1 -1 -1 -1 0 1
7 6 5 5 4 5 6 5 5 5 5 4 4 4 3 3 2 2 2 2 2 1 1 1 0 0 -0 -0 0 -0 -0 -0 -0 -0 -1 -0 0 -0 -0 -0 -0 -0 -0 -0 -0 -0 -0 -0 -1
6 6 5 5 5 5 5 6 6 6 4 4 4 4 4 3 3 2 1 2 2 2 1 1 1 0 0 0 0 0 0 -0 -0 -0 -1 -0 0 0 -0 -0 -0 -0 -0 -0 -0 -0 0 0 -0
5 5 5 5 5 5 6 6 6 5 4 4 4 4 4 3 3 2 1 2 0 -1 1 1 1 0 0 0 0 0 0 -0 -0 -0 -0 -0 -0 0 0 0 0 -0 -0 -0 -0 0 0 0 0
5 7 6 6 5 6 5 7 7 5 4 5 4 4 4 3 2 2 2 1 1 -1 1 1 1 0 1 0 0 0 0 -0 0 -0 -0 -0 -0 -0 0 0 0 0 -0 -0 -0 0 0 0 0
7 7 9 6 6 5 6 9 6 4 5 5 5 4 4 3 2 1 1 1 -2 -1 0 0 0 1 1 0 0 0 -0 -0 -0 -0 -0 -0 -0 -0 -0 0 0 -0 0 0 0 1 1 1 1
7 10 9 8 5 6 7 8 6 4 4 5 5 4 4 3 2 1 1 -0 -4 -2 -0 -1 -0 0 1 0 0 0 -0 0 -0 -0 -0 -0 -0 -0 -0 0 0 -0 0 0 1 1 1 1 1
10 9 9 8 6 6 7 8 6 5 5 5 4 4 4 3 3 2 1 1 -0 -0 0 0 0 0 0 0 0 0 0 0 0 0 0 -0 -0 -0 0 0 0 0 0 1 1 1 1 1 1
7 8 9 7 6 7 7 7 6 5 5 5 4 4 4 3 2 1 1 0 0 0 0 -1 0 0 0 1 2 2 2 1 1 0 0 -0 -0 0 0 0 0 0 1 1 1 1 1 2 1
7 8 9 7 6 7 7 8 6 5 5 5 4 4 4 3 3 2 1 1 1 1 1 0 0 0 0 1 1 1 1 1 1 0 0 0 0 0 0 0 1 1 1 1 1 1 2 2 1
8 8 9 9 7 6 7 8 7 6 5 4 4 4 3 3 3 3 2 2 1 1 1 -1 -0 0 0 0 1 1 1 1 1 1 1 0 0 0 0 0 1 1 1 1 1 1 2 3 2
9 7 7 8 9 11 7 12 8 7 6 5 5 4 4 3 3 2 2 2 2 1 0 -0 -0 -1 -0 -0 1 1 2 3 2 1 1 1 0 0 0 0 0 1 1 1 1 1 1 2 3
8 6 7 8 9 9 9 11 9 7 8 6 5 4 4 3 3 3 3 2 1 1 0 0 1 0 -1 -1 0 1 2 2 1 1 1 1 1 0 0 0 1 1 1 1 1 1 1 1 2
6 7 7 8 9 13 10 11 11 9 7 6 5 4 4 4 3 3 2 1 1 1 1 1 1 1 0 -0 0 1 2 2 2 2 2 2 1 1 1 1 1 1 1 1 1 1 1 1 2
7 9 13 14 14 14 9 11 10 7 6 6 5 5 4 3 3 4 4 3 1 1 0 1 0 1 1 1 1 1 1 1 2 2 2 2 2 1 1 1 1 1 1 1 1 1 1 1 2
8 9 13 17 17 14 10 14 11 6 5 5 4 4 4 4 4 4 4 3 3 2 0 0 0 1 1 1 1 1 0 1 1 1 1 2 2 1 1 1 1 2 2 0 1 2 1 1 1
9 11 8 13 13 15 13 10 8 7 6 6 5 5 4 4 4 4 3 3 2 1 0 0 0 0 1 1 1 1 1 1 1 1 1 1 1 1 1 1 1 3 3 3 3 1 3 2 1
8 8 14 14 21 19 14 13 12 10 8 7 6 6 5 4 4 4 3 2 2 1 0 1 1 0 0 1 1 1 1 1 1 1 1 1 1 1 1 1 1 3 4 3 1 2 2 1 3
10 11 11 12 13 19 18 14 8 9 8 8 6 5 5 5 4 4 3 3 3 2 2 2 1 1 1 1 0 1 1 1 1 1 1 1 1 1 1 1 1 2 2 2 1 2 1 2 4
8 10 10 17 17 14 16 17 7 7 7 6 6 5 5 4 4 4 3 3 3 3 3 2 1 1 1 1 1 1 0 1 1 1 1 1 1 1 1 1 1 1 1 1 1 2 3 2 2